• In Romania
  • List of Countries
  • For 7 days
  • Water Temperature
  • Satellite Maps
  • Weather Map
  • Weather Widgets
  • user-avatar
    Login

    Hourly Weather Kalgoorlie

    Today, 18 January, Wednesday

    Time Temperature Precipitation Wind Pressure Humidity
    00:00 +16°C° 0 mm 7 mps 729 mmHg 76%
    01:00 +16°C° 0 mm 6 mps 729 mmHg 77%
    02:00 +15°C° 0 mm 7 mps 728 mmHg 78%
    03:00 +15°C° 0 mm 6 mps 728 mmHg 78%
    04:00 +15°C° 0 mm 6 mps 728 mmHg 79%
    05:00 +15°C° 0 mm 6 mps 729 mmHg 79%
    06:00 +15°C° 0 mm 6 mps 729 mmHg 78%
    07:00 +16°C° 0 mm 6 mps 729 mmHg 77%
    08:00 +17°C° 0 mm 5 mps 729 mmHg 71%
    09:00 +19°C° 0 mm 6 mps 729 mmHg 67%
    10:00 +21°C° 0 mm 6 mps 728 mmHg 64%
    11:00 +22°C° 0 mm 6 mps 728 mmHg 60%
    12:00 +23°C° 0 mm 6 mps 727 mmHg 57%
    13:00 +26°C° 0 mm 5 mps 727 mmHg 55%
    14:00 +27°C° 0 mm 5 mps 726 mmHg 52%
    15:00 +27°C° 0 mm 5 mps 726 mmHg 51%
    16:00 +28°C° 0 mm 5 mps 726 mmHg 51%
    17:00 +28°C° 0 mm 4 mps 726 mmHg 50%
    18:00 +27°C° 0 mm 4 mps 726 mmHg 55%
    19:00 +26°C° 0 mm 4 mps 725 mmHg 59%
    20:00 +25°C° 0 mm 5 mps 725 mmHg 61%
    21:00 +25°C° 0 mm 5 mps 725 mmHg 64%
    22:00 +23°C° 0 mm 6 mps 725 mmHg 66%
    23:00 +22°C° 0 mm 6 mps 725 mmHg 69%

    Tomorrow, 19 January, Thursday

    Time Temperature Precipitation Wind Pressure Humidity
    00:00 +22°C° 0 mm 6 mps 724 mmHg 71%
    01:00 +22°C° 0 mm 5 mps 724 mmHg 73%
    02:00 +21°C° 0 mm 5 mps 724 mmHg 75%
    03:00 +21°C° 0 mm 4 mps 724 mmHg 77%
    04:00 +21°C° 0 mm 4 mps 723 mmHg 78%
    05:00 +21°C° 0 mm 3 mps 723 mmHg 79%
    06:00 +22°C° 0 mm 3 mps 723 mmHg 74%
    07:00 +24°C° 0 mm 3 mps 723 mmHg 69%
    08:00 +25°C° 0 mm 2 mps 723 mmHg 64%
    09:00 +27°C° 0.1 mm 2 mps 723 mmHg 61%
    10:00 +28°C° 0.1 mm 3 mps 723 mmHg 58%
    11:00 +29°C° 0.1 mm 3 mps 723 mmHg 55%
    12:00 +30°C° 0 mm 3 mps 723 mmHg 50%
    13:00 +33°C° 0 mm 4 mps 722 mmHg 46%
    14:00 +34°C° 0 mm 4 mps 722 mmHg 42%
    15:00 +34°C° 0 mm 5 mps 722 mmHg 40%
    16:00 +34°C° 0 mm 5 mps 722 mmHg 39%
    17:00 +34°C° 0 mm 6 mps 722 mmHg 37%
    18:00 +30°C° 0 mm 7 mps 722 mmHg 44%
    19:00 +28°C° 0 mm 8 mps 723 mmHg 50%
    20:00 +26°C° 0 mm 9 mps 723 mmHg 57%
    21:00 +24°C° 0 mm 9 mps 724 mmHg 56%
    22:00 +22°C° 0 mm 9 mps 724 mmHg 54%
    23:00 +20°C° 0 mm 8 mps 725 mmHg 53%

    Day after tomorrow, 20 January, Friday

    Time Temperature Precipitation Wind Pressure Humidity
    00:00 +18°C° 0 mm 8 mps 725 mmHg 55%
    01:00 +18°C° 0 mm 7 mps 725 mmHg 58%
    02:00 +17°C° 0 mm 7 mps 725 mmHg 60%
    03:00 +16°C° 0 mm 6 mps 725 mmHg 64%
    04:00 +16°C° 0 mm 6 mps 726 mmHg 68%
    05:00 +15°C° 0 mm 6 mps 726 mmHg 72%
    06:00 +16°C° 0 mm 6 mps 726 mmHg 67%
    07:00 +17°C° 0 mm 6 mps 726 mmHg 63%
    08:00 +19°C° 0 mm 5 mps 727 mmHg 58%
    09:00 +21°C° 0 mm 5 mps 727 mmHg 50%
    10:00 +23°C° 0 mm 5 mps 726 mmHg 42%
    11:00 +26°C° 0 mm 4 mps 726 mmHg 34%
    12:00 +28°C° 0 mm 4 mps 726 mmHg 32%
    13:00 +29°C° 0 mm 3 mps 725 mmHg 29%
    14:00 +31°C° 0 mm 3 mps 725 mmHg 27%
    15:00 +31°C° 0 mm 3 mps 724 mmHg 26%
    16:00 +31°C° 0 mm 3 mps 724 mmHg 25%
    17:00 +32°C° 0 mm 4 mps 724 mmHg 24%
    18:00 +30°C° 0 mm 4 mps 724 mmHg 25%
    19:00 +28°C° 0 mm 4 mps 725 mmHg 27%
    20:00 +27°C° 0 mm 4 mps 725 mmHg 28%
    21:00 +26°C° 0 mm 5 mps 725 mmHg 31%
    22:00 +25°C° 0 mm 5 mps 726 mmHg 34%
    23:00 +23°C° 0 mm 5 mps 726 mmHg 37%

    21 January, Saturday

    Time Temperature Precipitation Wind Pressure Humidity
    00:00 +22°C° 0 mm 5 mps 726 mmHg 47%
    01:00 +21°C° 0 mm 5 mps 725 mmHg 57%
    02:00 +20°C° 0 mm 6 mps 725 mmHg 66%
    03:00 +20°C° 0 mm 5 mps 725 mmHg 71%
    04:00 +19°C° 0 mm 5 mps 725 mmHg 75%
    05:00 +19°C° 0 mm 5 mps 725 mmHg 79%
    06:00 +20°C° 0 mm 5 mps 725 mmHg 74%
    07:00 +21°C° 0 mm 5 mps 726 mmHg 69%
    08:00 +23°C° 0 mm 5 mps 726 mmHg 63%
    09:00 +26°C° 0 mm 4 mps 726 mmHg 54%
    10:00 +28°C° 0 mm 3 mps 726 mmHg 45%
    11:00 +31°C° 0 mm 3 mps 726 mmHg 36%
    12:00 +32°C° 0 mm 2 mps 725 mmHg 32%
    13:00 +34°C° 0 mm 2 mps 725 mmHg 27%
    14:00 +34°C° 0 mm 1 mps 724 mmHg 23%
    15:00 +35°C° 0 mm 2 mps 724 mmHg 22%
    16:00 +35°C° 0 mm 2 mps 723 mmHg 21%
    17:00 +36°C° 0 mm 2 mps 723 mmHg 20%
    18:00 +34°C° 0 mm 3 mps 724 mmHg 22%
    19:00 +33°C° 0 mm 3 mps 724 mmHg 24%
    20:00 +30°C° 0 mm 4 mps 724 mmHg 27%
    21:00 +30°C° 0 mm 4 mps 724 mmHg 28%
    22:00 +29°C° 0 mm 4 mps 724 mmHg 29%
    23:00 +28°C° 0 mm 4 mps 724 mmHg 30%

    22 January, Sunday

    Time Temperature Precipitation Wind Pressure Humidity
    00:00 +27°C° 0 mm 4 mps 724 mmHg 35%
    01:00 +27°C° 0 mm 4 mps 724 mmHg 39%
    02:00 +26°C° 0 mm 4 mps 723 mmHg 44%
    03:00 +26°C° 0 mm 4 mps 723 mmHg 50%
    04:00 +25°C° 0 mm 3 mps 723 mmHg 57%
    05:00 +25°C° 0 mm 3 mps 724 mmHg 64%
    06:00 +27°C° 0 mm 4 mps 724 mmHg 57%
    07:00 +28°C° 0 mm 4 mps 724 mmHg 51%
    08:00 +30°C° 0 mm 5 mps 725 mmHg 45%
    09:00 +33°C° 0 mm 5 mps 724 mmHg 39%
    10:00 +35°C° 0 mm 5 mps 724 mmHg 33%
    11:00 +37°C° 0 mm 5 mps 724 mmHg 27%
    12:00 +39°C° 0 mm 6 mps 723 mmHg 26%
    13:00 +40°C° 0 mm 6 mps 723 mmHg 25%
    14:00 +40°C° 0 mm 6 mps 722 mmHg 24%
    15:00 +39°C° 0 mm 6 mps 722 mmHg 28%
    16:00 +36°C° 0 mm 7 mps 722 mmHg 33%
    17:00 +34°C° 0 mm 7 mps 722 mmHg 37%
    18:00 +33°C° 0.3 mm 6 mps 723 mmHg 41%
    19:00 +32°C° 0.3 mm 5 mps 723 mmHg 46%
    20:00 +30°C° 0.3 mm 3 mps 724 mmHg 51%
    21:00 +29°C° 0.4 mm 4 mps 724 mmHg 54%
    22:00 +28°C° 0.4 mm 4 mps 724 mmHg 58%
    23:00 +27°C° 0.4 mm 5 mps 724 mmHg 62%

    23 January, Monday

    Time Temperature Precipitation Wind Pressure Humidity
    00:00 +25°C° 0.1 mm 5 mps 725 mmHg 64%
    01:00 +23°C° 0.1 mm 6 mps 725 mmHg 67%
    02:00 +21°C° 0.1 mm 7 mps 725 mmHg 69%
    03:00 +20°C° 0.1 mm 7 mps 725 mmHg 71%
    04:00 +20°C° 0.1 mm 7 mps 726 mmHg 72%
    05:00 +18°C° 0.1 mm 8 mps 726 mmHg 74%
    06:00 +18°C° 0 mm 8 mps 727 mmHg 71%
    07:00 +20°C° 0 mm 7 mps 727 mmHg 69%
    08:00 +21°C° 0 mm 7 mps 728 mmHg 66%
    09:00 +23°C° 0 mm 7 mps 728 mmHg 59%
    10:00 +26°C° 0 mm 6 mps 728 mmHg 52%
    11:00 +28°C° 0 mm 6 mps 728 mmHg 45%
    12:00 +29°C° 0 mm 6 mps 728 mmHg 41%
    13:00 +30°C° 0 mm 6 mps 727 mmHg 37%
    14:00 +33°C° 0 mm 6 mps 727 mmHg 33%
    15:00 +33°C° 0 mm 6 mps 727 mmHg 31%
    16:00 +33°C° 0 mm 6 mps 727 mmHg 30%
    17:00 +33°C° 0 mm 6 mps 728 mmHg 29%
    18:00 +30°C° 0 mm 7 mps 728 mmHg 31%
    19:00 +28°C° 0 mm 8 mps 729 mmHg 34%
    20:00 +26°C° 0 mm 9 mps 730 mmHg 36%
    21:00 +23°C° 0 mm 9 mps 731 mmHg 41%
    22:00 +22°C° 0 mm 9 mps 731 mmHg 47%
    23:00 +19°C° 0 mm 9 mps 732 mmHg 52%
    Show more